AISAT

Satellite information

Favourite Embed

Satellite Type and Status

PAYLOADIN ORBIT

Key statistics

Satellite AISAT at a glance.

Uptime

4026

Days in orbit

Revolutions

≈ 15.0

Per day

Orbit

SSO

Sun Synchronous Orbit

Inclination

98.3

Latest

Satellite identification and parameters

Extended collection of information and parameters for AISAT.

Object identification

Identified? True

Debris? False

Object name: AISAT

International designator: 2014-034B

Object number (NORAD): 40054

Object ID (CCSDS): 40054

Country: GERMANY (GER)

Current information (Y/N): Y

RCS size: MEDIUM

Orbital parameters

Period: 95.982 minutes

Inclination: 98.2865 deg

SMA: 6944.163 km

Apoapsis: 573.229 km

Periapsis: 558.827 km

RAAN: 72.8475 deg

Eccentricy: 0.001037

Argument of periapsis: 278.3079 deg

Mean anomaly: 81.6967 deg

Mean motion: 15.00282096 rev/day

Mean motion (dot): 0.00004898 rev/day2

B* drag term: 0.00039588 1/REarth

Two-line elements (TLE)

Creation date: July 8, 2025, 2:27 a.m.

Reference frame: TEME

Reference center: EARTH

Epoch: July 7, 2025, 3:35 p.m. UTC

TLE line 0: 0 AISAT

TLE line 1: 1 40054U 14034B 25188.64968224 .00004898 00000-0 39588-3 0 9995

TLE line 2: 2 40054 98.2865 72.8475 0010370 278.3079 81.6967 15.00282096595406

Live tracking on map

Real-time ground track for satellite AISAT.

In-orbit conjunctions

There are no conjunctions computed for AISAT, at the moment. Check back to stay up to date, as we update our databases every day.

Go to all conjunctions

Associated space launch

AISAT was lifted into orbit during the mission ‘PSLV-CA | SPOT-7, CanX-4, CanX-5, AISat, VELOX-I’, on board a PSLV space rocket.

The launch took place on June 30, 2014, 4:22 a.m. from Satish Dhawan Space Centre First Launch Pad.

For more information about the launch, click the button.

Launch to space PSLV-CA | SPOT-7, CanX-4, CanX-5, AISat, VELOX-I
PSLV-CA | SPOT-7, CanX-4, CanX-5, AISat, VELOX-I

Agency: N/A

Status: Launch Successful

Launch date: June 30, 2014, 4:22 a.m. UTC

Rocket: PSLV

Launch pad: Satish Dhawan Space Centre First Launch Pad

Location: Satish Dhawan Space Centre, India

...

Latest news about this satellite

There are no fresh news available about this satellite. Check back as we update our databases every day.


Newsletter sign-up

Weekly statistics, charts and insights to help you stay on top of the space industry.